Home > Weather > Pembroke Pines > Past weeks

Flag for USA Past Weather in Pembroke Pines, Florida, USA — Yesterday and Last 2 Weeks

Now
83 °F

Sunny.


Feels Like: 86 °F
Forecast: 77 / 89 °F
Wind: 5 mph from East

Location: North Perry Airport

Current Time: Jul 24, 2016 at 4:37:29 PM

Latest Report: Jul 24, 2016 at 3:53 PM


Visibility: 10 mi

Pressure: 30.08 "Hg

Humidity: 63%

Dew Point: 69 °F

Location of Pembroke PinesLocation

Past Weather in Pembroke Pines — Graph

°F

Pembroke Pines Temperature Yesterday

Maximum temperature yesterday: 88 °F (at 11:53 AM)
Minimum temperature yesterday: 76 °F (at 3:53 AM)
Average temperature yesterday: 82 °F

High & Low Weather Summary for the Past Weeks

 TemperatureHumidityPressure
High95 °F (Jul 12, 12:53 PM)94% (Jul 16, 4:53 AM)30.20 "Hg (Jul 16, 4:53 AM)
Low76 °F (Jul 21, 3:53 AM)46% (Jul 10, 2:53 PM)30.01 "Hg (Jul 15, 6:53 PM)
Average85 °F70%30.09 "Hg
* Reported Jul 9 2:53 PM — Jul 24 2:53 PM, Pembroke Pines, Weather by CustomWeather, © 2016

Note: Actual official high and low records may vary slightly from our data, if they occured in-between our weather recording intervals... More about our weather records

Advertising

Pembroke Pines Weather History for the Previous 24 Hours

Scroll right to see more
 ConditionsComfort  
Time TempWeatherWind HumidityBarometerVisibility
2:53 PM
Sun, Jul 24
84 °FSunny.9 mph70%30.07 "Hg10 mi
1:53 PM83 °FSunny.7 mph74%30.05 "Hg10 mi
12:53 PM78 °FPassing clouds.8 mph79%30.08 "Hg10 mi
11:53 AM78 °FMostly cloudy.15 mph76%30.11 "Hg10 mi
10:53 AM84 °FPassing clouds.No wind72%30.08 "Hg10 mi
9:53 AM85 °FSunny.3 mph72%30.06 "Hg10 mi
8:53 AM80 °FSunny.3 mph81%30.07 "Hg10 mi
7:53 AM78 °FSunny.No wind87%30.06 "Hg10 mi
6:53 AM77 °FClear.No wind88%30.04 "Hg10 mi
5:53 AM76 °FClear.No wind91%30.03 "Hg10 mi
4:53 AM77 °FClear.No wind88%30.01 "Hg10 mi
3:53 AM77 °FClear.No wind88%30.03 "Hg10 mi
2:53 AM77 °FClear.3 mph88%30.03 "Hg10 mi
1:53 AM77 °FClear.7 mph88%30.05 "Hg10 mi
12:53 AM78 °FLight rain. Passing clouds.6 mph84%30.05 "Hg10 mi
11:53 PM
Sat, Jul 23
79 °FClear.No wind82%30.07 "Hg10 mi
10:53 PM81 °FPassing clouds.5 mph74%30.07 "Hg10 mi
9:53 PM84 °FClear.No wind70%30.05 "Hg10 mi
8:53 PM83 °FPassing clouds.6 mph72%30.03 "Hg10 mi
7:53 PM84 °FSunny.7 mph70%30.03 "Hg10 mi
6:53 PM85 °FPassing clouds.8 mph70%30.01 "Hg10 mi
5:53 PM86 °FSunny.8 mph67%30.01 "Hg10 mi
4:53 PM86 °FSunny.7 mph67%30.01 "Hg10 mi
Weather by CustomWeather, © 2016

See weather overviewHow to use our weather pages